RADUGA 19 [-]

Last updated on Wed Jun 28 2023 00:02:57 GMT+0000 (Coordinated Universal Time)

1 17046U 86082A 23178.18035355 -.00000207 00000+0 00000+0 0 9991 2 17046 12.7588 332.7194 0015200 154.9305 194.4531 0.98462285132260

Satellite not in orbit

RADUGA 19 [-]